DAL1556 KIAD-KBOS

Flight info

Callsign DAL1556
Flight time 1h 4m
Altitude 29000
Route JCOBY4 SWANN BROSS Q419 JFK ROBUC3
Aircraft A321/M-SDE3FGHIRWY/LB1

Departure

Time 2026-05-06 19:59
Airport Washington Dulles International Airport (KIAD)

Arrival

Time 2026-05-06 21:03
Airport Boston Logan International Airport (KBOS)
Time Latitude Longitude Altitude Speed Heading
2026-05-06 19:27 38.94819 -77.44736 302 ft 0 kts 15°
2026-05-06 19:39 38.94816 -77.44737 300 ft 3 kts 15°
2026-05-06 19:39 38.94809 -77.44740 301 ft 0 kts 15°
2026-05-06 19:41 38.94798 -77.44743 304 ft 4 kts 12°
2026-05-06 19:41 38.94772 -77.44749 300 ft 4 kts
2026-05-06 19:42 38.94746 -77.44746 300 ft 4 kts 335°
2026-05-06 19:42 38.94727 -77.44726 300 ft 4 kts 287°
2026-05-06 19:42 38.94725 -77.44712 300 ft 0 kts 270°
2026-05-06 19:45 38.94725 -77.44705 300 ft 2 kts 289°
2026-05-06 19:45 38.94725 -77.44702 300 ft 2 kts 292°
2026-05-06 19:46 38.94724 -77.44701 300 ft 0 kts 292°
2026-05-06 19:46 38.94725 -77.44718 300 ft 7 kts 266°
2026-05-06 19:46 38.94725 -77.44788 300 ft 8 kts 270°
2026-05-06 19:46 38.94725 -77.44852 300 ft 7 kts 270°
2026-05-06 19:47 38.94726 -77.44918 302 ft 11 kts 272°
2026-05-06 19:47 38.94728 -77.45060 300 ft 17 kts 270°
2026-05-06 19:47 38.94730 -77.45197 300 ft 15 kts 270°
2026-05-06 19:47 38.94730 -77.45315 300 ft 0 kts 270°
2026-05-06 19:48 38.94731 -77.45344 300 ft 14 kts 270°
2026-05-06 19:49 38.94732 -77.45506 300 ft 18 kts 271°
2026-05-06 19:49 38.94784 -77.45608 303 ft 14 kts 356°
2026-05-06 19:49 38.94878 -77.45607 300 ft 13 kts
2026-05-06 19:49 38.94964 -77.45606 300 ft 12 kts
2026-05-06 19:50 38.95043 -77.45603 303 ft 11 kts
2026-05-06 19:50 38.95116 -77.45602 300 ft 12 kts
2026-05-06 19:50 38.95224 -77.45600 300 ft 17 kts
2026-05-06 19:50 38.95337 -77.45599 301 ft 16 kts
2026-05-06 19:51 38.95440 -77.45597 302 ft 14 kts
2026-05-06 19:51 38.95538 -77.45596 301 ft 17 kts
2026-05-06 19:51 38.95668 -77.45594 301 ft 18 kts
2026-05-06 19:51 38.95789 -77.45592 302 ft 17 kts
2026-05-06 19:52 38.95899 -77.45592 302 ft 15 kts
2026-05-06 19:52 38.95997 -77.45590 302 ft 14 kts
2026-05-06 19:52 38.96095 -77.45589 301 ft 16 kts
2026-05-06 19:52 38.96200 -77.45587 301 ft 14 kts
2026-05-06 19:53 38.96295 -77.45586 303 ft 13 kts
2026-05-06 19:53 38.96382 -77.45584 302 ft 12 kts
2026-05-06 19:53 38.96480 -77.45583 302 ft 14 kts
2026-05-06 19:53 38.96572 -77.45581 303 ft 13 kts
2026-05-06 19:54 38.96663 -77.45579 302 ft 15 kts
2026-05-06 19:54 38.96767 -77.45577 302 ft 14 kts
2026-05-06 19:54 38.96862 -77.45576 302 ft 13 kts
2026-05-06 19:54 38.96949 -77.45576 302 ft 12 kts
2026-05-06 19:55 38.97012 -77.45614 303 ft 10 kts 288°
2026-05-06 19:55 38.97014 -77.45697 302 ft 9 kts 270°
2026-05-06 19:55 38.97015 -77.45771 304 ft 8 kts 270°
2026-05-06 19:55 38.97015 -77.45792 305 ft 0 kts 270°
2026-05-06 19:57 38.97015 -77.45802 304 ft 6 kts 270°
2026-05-06 19:58 38.97011 -77.45875 304 ft 8 kts 252°
2026-05-06 19:58 38.96956 -77.45930 303 ft 24 kts 195°
2026-05-06 19:58 38.96546 -77.45942 301 ft 91 kts 180°
2026-05-06 19:58 38.95732 -77.45952 303 ft 140 kts 180°
2026-05-06 19:59 38.94672 -77.45965 595 ft 157 kts 180°
2026-05-06 19:59 38.93547 -77.45973 1103 ft 165 kts 187°
2026-05-06 19:59 38.92477 -77.46424 1660 ft 165 kts 218°
2026-05-06 19:59 38.91878 -77.47660 2254 ft 168 kts 251°
2026-05-06 20:00 38.91655 -77.49172 2731 ft 179 kts 259°
2026-05-06 20:00 38.91467 -77.50847 2966 ft 200 kts 259°
2026-05-06 20:00 38.91260 -77.52730 3128 ft 226 kts 259°
2026-05-06 20:00 38.91024 -77.54794 3632 ft 239 kts 260°
2026-05-06 20:01 38.90760 -77.56925 4430 ft 242 kts 260°
2026-05-06 20:01 38.90459 -77.59070 5234 ft 246 kts 260°
2026-05-06 20:01 38.90139 -77.61239 5808 ft 248 kts 259°
2026-05-06 20:01 38.89829 -77.63397 5962 ft 246 kts 259°
2026-05-06 20:02 38.89629 -77.65568 5998 ft 245 kts 274°
2026-05-06 20:02 38.90218 -77.67628 6158 ft 256 kts 304°
2026-05-06 20:02 38.91654 -77.69049 6990 ft 271 kts 330°
2026-05-06 20:02 38.93555 -77.69504 7758 ft 290 kts 356°
2026-05-06 20:03 38.95580 -77.69015 8485 ft 301 kts
2026-05-06 20:03 38.97614 -77.68264 9223 ft 308 kts 14°
2026-05-06 20:03 38.99499 -77.66822 9898 ft 325 kts 39°
2026-05-06 20:03 39.00889 -77.64504 10329 ft 344 kts 56°
2026-05-06 20:04 39.02175 -77.61732 10467 ft 368 kts 57°
2026-05-06 20:04 39.03466 -77.58823 10585 ft 390 kts 58°
2026-05-06 20:04 39.04822 -77.55719 10951 ft 403 kts 59°
2026-05-06 20:04 39.06203 -77.52554 11526 ft 408 kts 58°
2026-05-06 20:05 39.07605 -77.49352 12134 ft 413 kts 58°
2026-05-06 20:05 39.09028 -77.46115 12740 ft 418 kts 58°
2026-05-06 20:05 39.10475 -77.42843 13360 ft 422 kts 57°
2026-05-06 20:05 39.11941 -77.39547 13955 ft 426 kts 57°
2026-05-06 20:06 39.13343 -77.36152 14447 ft 436 kts 64°
2026-05-06 20:06 39.14332 -77.32426 14946 ft 444 kts 75°
2026-05-06 20:06 39.14807 -77.28480 15482 ft 448 kts 86°
2026-05-06 20:06 39.14748 -77.24451 16026 ft 451 kts 97°
2026-05-06 20:07 39.14187 -77.20482 16568 ft 451 kts 105°
2026-05-06 20:07 39.13509 -77.16528 17151 ft 453 kts 105°
2026-05-06 20:07 39.12844 -77.12537 17658 ft 457 kts 104°
2026-05-06 20:07 39.12197 -77.08515 18155 ft 461 kts 104°
2026-05-06 20:08 39.11550 -77.04405 18570 ft 465 kts 103°
2026-05-06 20:08 39.10957 -77.00286 18969 ft 471 kts 99°
2026-05-06 20:08 39.10759 -76.96057 19344 ft 477 kts 89°
2026-05-06 20:08 39.10878 -76.91759 19753 ft 482 kts 88°
2026-05-06 20:09 39.11004 -76.87440 20136 ft 486 kts 88°
2026-05-06 20:09 39.11122 -76.83073 20510 ft 490 kts 88°
2026-05-06 20:09 39.11229 -76.78731 20893 ft 494 kts 89°
2026-05-06 20:09 39.11335 -76.74293 21264 ft 498 kts 89°
2026-05-06 20:10 39.11442 -76.69814 21622 ft 503 kts 89°
2026-05-06 20:10 39.11548 -76.65296 21954 ft 507 kts 89°
2026-05-06 20:10 39.11653 -76.60738 22352 ft 512 kts 88°
2026-05-06 20:10 39.11755 -76.56140 22775 ft 516 kts 89°
2026-05-06 20:11 39.11936 -76.51507 23118 ft 520 kts 83°
2026-05-06 20:11 39.12447 -76.46887 23479 ft 524 kts 80°
2026-05-06 20:11 39.12988 -76.42217 23826 ft 528 kts 80°
2026-05-06 20:11 39.13524 -76.37527 24152 ft 531 kts 81°
2026-05-06 20:12 39.14055 -76.32807 24484 ft 534 kts 81°
2026-05-06 20:12 39.14581 -76.28060 24809 ft 537 kts 81°
2026-05-06 20:12 39.15108 -76.23298 25123 ft 539 kts 81°
2026-05-06 20:12 39.15644 -76.18490 25445 ft 542 kts 81°
2026-05-06 20:13 39.16191 -76.13682 25719 ft 545 kts 80°
2026-05-06 20:13 39.16749 -76.08845 26047 ft 547 kts 80°
2026-05-06 20:13 39.17311 -76.03990 26341 ft 549 kts 80°
2026-05-06 20:13 39.17936 -75.99128 26617 ft 550 kts 75°
2026-05-06 20:14 39.19000 -75.94395 26897 ft 550 kts 66°
2026-05-06 20:14 39.20548 -75.89903 27157 ft 547 kts 57°
2026-05-06 20:14 39.22539 -75.85749 27436 ft 542 kts 47°
2026-05-06 20:14 39.24921 -75.82016 27746 ft 536 kts 39°
2026-05-06 20:15 39.27630 -75.78763 28030 ft 529 kts 31°
2026-05-06 20:15 39.29498 -75.76743 28195 ft 531 kts 31°
2026-05-06 20:15 39.33279 -75.72626 28684 ft 530 kts 31°
2026-05-06 20:15 39.36086 -75.69548 28842 ft 528 kts 32°
2026-05-06 20:16 39.40663 -75.64489 28857 ft 516 kts 32°
2026-05-06 20:16 39.46996 -75.57511 28866 ft 514 kts 31°
2026-05-06 20:17 39.51562 -75.52489 28863 ft 514 kts 31°
2026-05-06 20:17 39.57008 -75.46482 28881 ft 515 kts 31°
2026-05-06 20:18 39.62463 -75.40452 28832 ft 515 kts 32°
2026-05-06 20:18 39.67901 -75.34416 28850 ft 514 kts 32°
2026-05-06 20:19 39.73335 -75.28380 28857 ft 514 kts 32°
2026-05-06 20:19 39.78744 -75.22294 28858 ft 517 kts 36°
2026-05-06 20:20 39.83602 -75.15269 28858 ft 524 kts 41°
2026-05-06 20:20 39.88399 -75.08121 28855 ft 524 kts 41°
2026-05-06 20:21 39.93195 -75.00986 28876 ft 523 kts 41°
2026-05-06 20:21 39.97815 -74.93706 28854 ft 531 kts 50°
2026-05-06 20:22 40.01906 -74.85673 28844 ft 532 kts 50°
2026-05-06 20:22 40.05993 -74.77631 28839 ft 532 kts 50°
2026-05-06 20:23 40.10085 -74.69583 28828 ft 532 kts 50°
2026-05-06 20:23 40.14175 -74.61529 28835 ft 533 kts 51°
2026-05-06 20:24 40.18264 -74.53452 28824 ft 532 kts 49°
2026-05-06 20:24 40.23117 -74.46409 28835 ft 513 kts 31°
2026-05-06 20:25 40.28646 -74.40529 28878 ft 512 kts 30°
2026-05-06 20:25 40.34171 -74.34647 28826 ft 512 kts 31°
2026-05-06 20:26 40.39684 -74.28728 28815 ft 512 kts 31°
2026-05-06 20:26 40.45191 -74.22795 28819 ft 512 kts 31°
2026-05-06 20:27 40.50681 -74.16833 28852 ft 515 kts 34°
2026-05-06 20:27 40.53173 -74.13394 28723 ft 523 kts 44°
2026-05-06 20:27 40.55261 -74.09434 27913 ft 532 kts 56°
2026-05-06 20:28 40.56810 -74.04989 27197 ft 538 kts 68°
2026-05-06 20:28 40.57892 -74.00269 26890 ft 540 kts 72°
2026-05-06 20:28 40.58960 -73.95542 26819 ft 538 kts 71°
2026-05-06 20:28 40.60057 -73.90833 26864 ft 538 kts 71°
2026-05-06 20:29 40.61171 -73.86132 26856 ft 538 kts 70°
2026-05-06 20:29 40.62446 -73.81514 26864 ft 535 kts 63°
2026-05-06 20:29 40.64121 -73.77163 26850 ft 532 kts 55°
2026-05-06 20:29 40.66167 -73.73133 26862 ft 527 kts 47°
2026-05-06 20:30 40.68535 -73.69486 26860 ft 522 kts 41°
2026-05-06 20:30 40.73418 -73.62380 26854 ft 522 kts 42°
2026-05-06 20:30 40.75697 -73.58649 26853 ft 528 kts 52°
2026-05-06 20:31 40.77639 -73.54526 26860 ft 529 kts 54°
2026-05-06 20:31 40.79565 -73.50384 26902 ft 529 kts 54°
2026-05-06 20:31 40.81488 -73.46234 26836 ft 530 kts 54°
2026-05-06 20:31 40.83399 -73.42097 26852 ft 530 kts 54°
2026-05-06 20:32 40.85321 -73.37932 26848 ft 530 kts 54°
2026-05-06 20:32 40.87240 -73.33775 26854 ft 530 kts 54°
2026-05-06 20:32 40.89157 -73.29615 26822 ft 530 kts 54°
2026-05-06 20:32 40.91068 -73.25455 26863 ft 529 kts 54°
2026-05-06 20:33 40.92973 -73.21297 26840 ft 528 kts 54°
2026-05-06 20:33 40.94874 -73.17137 26838 ft 528 kts 54°
2026-05-06 20:33 40.96774 -73.12976 26846 ft 528 kts 54°
2026-05-06 20:33 40.98676 -73.08819 26849 ft 528 kts 54°
2026-05-06 20:34 41.00581 -73.04666 26848 ft 528 kts 54°
2026-05-06 20:34 41.02487 -73.00507 26862 ft 528 kts 54°
2026-05-06 20:34 41.04383 -72.96341 26853 ft 528 kts 55°
2026-05-06 20:34 41.06273 -72.92172 26854 ft 527 kts 55°
2026-05-06 20:35 41.08161 -72.88010 26858 ft 527 kts 55°
2026-05-06 20:35 41.10046 -72.83848 26859 ft 526 kts 55°
2026-05-06 20:35 41.11929 -72.79685 26871 ft 526 kts 55°
2026-05-06 20:35 41.13814 -72.75518 26860 ft 526 kts 55°
2026-05-06 20:36 41.15697 -72.71356 26863 ft 526 kts 55°
2026-05-06 20:36 41.17581 -72.67190 26865 ft 526 kts 55°
2026-05-06 20:36 41.19461 -72.63022 26865 ft 526 kts 55°
2026-05-06 20:36 41.21338 -72.58849 26844 ft 526 kts 56°
2026-05-06 20:37 41.23212 -72.54684 26707 ft 525 kts 56°
2026-05-06 20:37 41.25080 -72.50522 26458 ft 525 kts 56°
2026-05-06 20:37 41.26923 -72.46413 26250 ft 524 kts 56°
2026-05-06 20:37 41.28810 -72.42196 25997 ft 524 kts 56°
2026-05-06 20:38 41.30675 -72.38024 25759 ft 524 kts 56°
2026-05-06 20:38 41.32529 -72.33866 25526 ft 524 kts 57°
2026-05-06 20:38 41.34384 -72.29700 25287 ft 523 kts 57°
2026-05-06 20:38 41.36213 -72.25588 24959 ft 520 kts 57°
2026-05-06 20:39 41.38052 -72.21450 24109 ft 520 kts 57°
2026-05-06 20:39 41.39890 -72.17310 23321 ft 519 kts 58°
2026-05-06 20:39 41.41721 -72.13187 22498 ft 515 kts 58°
2026-05-06 20:39 41.43534 -72.09096 21774 ft 510 kts 58°
2026-05-06 20:40 41.45331 -72.05031 21066 ft 506 kts 58°
2026-05-06 20:40 41.47106 -72.01009 20370 ft 501 kts 58°
2026-05-06 20:40 41.48863 -71.97020 19699 ft 497 kts 59°
2026-05-06 20:40 41.50602 -71.93063 19056 ft 492 kts 59°
2026-05-06 20:41 41.52320 -71.89156 18589 ft 483 kts 59°
2026-05-06 20:41 41.54010 -71.85314 17988 ft 478 kts 59°
2026-05-06 20:41 41.55684 -71.81507 17406 ft 472 kts 59°
2026-05-06 20:41 41.57333 -71.77744 16829 ft 467 kts 59°
2026-05-06 20:42 41.58960 -71.74014 16282 ft 462 kts 59°
2026-05-06 20:42 41.60568 -71.70325 15730 ft 457 kts 59°
2026-05-06 20:42 41.62166 -71.66662 15164 ft 454 kts 59°
2026-05-06 20:42 41.63753 -71.63028 14584 ft 451 kts 60°
2026-05-06 20:43 41.65330 -71.59411 14007 ft 449 kts 60°
2026-05-06 20:43 41.66898 -71.55811 13340 ft 447 kts 60°
2026-05-06 20:43 41.68448 -71.52248 12927 ft 433 kts 60°
2026-05-06 20:43 41.69899 -71.48898 12643 ft 400 kts 60°
2026-05-06 20:44 41.71246 -71.45789 12325 ft 376 kts 60°
2026-05-06 20:44 41.72538 -71.42805 11628 ft 366 kts 61°
2026-05-06 20:44 41.73809 -71.39853 10853 ft 361 kts 61°
2026-05-06 20:44 41.75050 -71.36954 10922 ft 361 kts 62°
2026-05-06 20:45 41.76303 -71.34014 11044 ft 367 kts 62°
2026-05-06 20:45 41.77586 -71.31004 11054 ft 372 kts 62°
2026-05-06 20:45 41.78829 -71.28091 11047 ft 358 kts 62°
2026-05-06 20:45 41.80053 -71.25215 11050 ft 354 kts 62°
2026-05-06 20:46 41.81271 -71.22359 11052 ft 353 kts 62°
2026-05-06 20:46 41.82488 -71.19501 11052 ft 353 kts 62°
2026-05-06 20:46 41.83703 -71.16638 11053 ft 353 kts 62°
2026-05-06 20:46 41.84916 -71.13776 11053 ft 353 kts 62°
2026-05-06 20:47 41.86131 -71.10914 11005 ft 355 kts 62°
2026-05-06 20:47 41.87358 -71.08052 10758 ft 353 kts 62°
2026-05-06 20:47 41.88588 -71.05211 10518 ft 351 kts 62°
2026-05-06 20:47 41.89817 -71.02385 10281 ft 350 kts 62°
2026-05-06 20:48 41.91040 -70.99566 10053 ft 349 kts 62°
2026-05-06 20:48 41.92260 -70.96750 9896 ft 348 kts 62°
2026-05-06 20:48 41.93475 -70.93942 9775 ft 347 kts 62°
2026-05-06 20:48 41.94680 -70.91141 9645 ft 346 kts 62°
2026-05-06 20:49 41.95880 -70.88343 9507 ft 345 kts 63°
2026-05-06 20:49 41.97076 -70.85550 9349 ft 344 kts 63°
2026-05-06 20:49 41.98267 -70.82768 9218 ft 343 kts 63°
2026-05-06 20:49 41.99453 -70.79995 9085 ft 342 kts 63°
2026-05-06 20:50 42.00645 -70.77238 8982 ft 342 kts 60°
2026-05-06 20:50 42.02097 -70.74697 8822 ft 343 kts 48°
2026-05-06 20:50 42.03698 -70.72315 8709 ft 343 kts 48°
2026-05-06 20:50 42.05292 -70.69935 8558 ft 342 kts 48°
2026-05-06 20:51 42.06880 -70.67557 8447 ft 341 kts 49°
2026-05-06 20:51 42.08459 -70.65189 8327 ft 340 kts 48°
2026-05-06 20:51 42.10191 -70.63030 8154 ft 338 kts 34°
2026-05-06 20:51 42.12211 -70.61481 7857 ft 332 kts 18°
2026-05-06 20:52 42.14396 -70.60595 7545 ft 325 kts
2026-05-06 20:52 42.16610 -70.59999 7257 ft 324 kts
2026-05-06 20:52 42.18813 -70.59394 6955 ft 322 kts
2026-05-06 20:52 42.21008 -70.58787 6643 ft 321 kts
2026-05-06 20:53 42.23197 -70.58182 6344 ft 320 kts
2026-05-06 20:53 42.25369 -70.58092 6093 ft 305 kts 342°
2026-05-06 20:53 42.27312 -70.58952 5762 ft 286 kts 320°
2026-05-06 20:53 42.28949 -70.60393 5407 ft 279 kts 315°
2026-05-06 20:54 42.30558 -70.61863 4970 ft 279 kts 315°
2026-05-06 20:54 42.32162 -70.63323 4604 ft 277 kts 315°
2026-05-06 20:54 42.33762 -70.64773 4291 ft 276 kts 315°
2026-05-06 20:54 42.35357 -70.66216 3979 ft 275 kts 315°
2026-05-06 20:55 42.36947 -70.67650 3656 ft 274 kts 314°
2026-05-06 20:55 42.38522 -70.69083 3405 ft 272 kts 315°
2026-05-06 20:55 42.40090 -70.70510 3074 ft 271 kts 315°
2026-05-06 20:55 42.41645 -70.71927 3006 ft 269 kts 314°
2026-05-06 20:56 42.43178 -70.73327 3009 ft 269 kts 314°
2026-05-06 20:56 42.44750 -70.74762 3006 ft 269 kts 314°
2026-05-06 20:56 42.46305 -70.76182 3006 ft 269 kts 314°
2026-05-06 20:56 42.47858 -70.77602 3007 ft 269 kts 314°
2026-05-06 20:57 42.49376 -70.78973 3003 ft 255 kts 314°
2026-05-06 20:57 42.50795 -70.80240 2988 ft 242 kts 316°
2026-05-06 20:57 42.52319 -70.81414 3008 ft 253 kts 313°
2026-05-06 20:57 42.53373 -70.83068 3006 ft 213 kts 283°
2026-05-06 20:58 42.53892 -70.84864 2751 ft 205 kts 277°
2026-05-06 20:58 42.54290 -70.86699 2432 ft 197 kts 265°
2026-05-06 20:58 42.54067 -70.88401 2166 ft 180 kts 240°
2026-05-06 20:58 42.53520 -70.89922 2025 ft 183 kts 236°
2026-05-06 20:59 42.52907 -70.91462 2010 ft 188 kts 236°
2026-05-06 20:59 42.52254 -70.92995 2010 ft 187 kts 231°
2026-05-06 20:59 42.51211 -70.93917 2004 ft 187 kts 192°
2026-05-06 20:59 42.49948 -70.94005 2024 ft 172 kts 194°
2026-05-06 21:00 42.49217 -70.94344 2020 ft 166 kts 204°
2026-05-06 21:00 42.48135 -70.94879 2001 ft 166 kts 202°
2026-05-06 21:00 42.47048 -70.95396 1966 ft 169 kts 202°
2026-05-06 21:00 42.45921 -70.95939 1815 ft 172 kts 201°
2026-05-06 21:01 42.44807 -70.96478 1623 ft 165 kts 200°
2026-05-06 21:01 42.43782 -70.96973 1415 ft 148 kts 201°
2026-05-06 21:01 42.42847 -70.97427 1225 ft 140 kts 200°
2026-05-06 21:01 42.41932 -70.97871 1021 ft 138 kts 200°
2026-05-06 21:02 42.41022 -70.98313 830 ft 141 kts 200°
2026-05-06 21:02 42.40086 -70.98766 635 ft 140 kts 199°
2026-05-06 21:02 42.39162 -70.99215 436 ft 144 kts 199°
2026-05-06 21:02 42.38253 -70.99653 259 ft 139 kts 200°
2026-05-06 21:03 42.37353 -71.00096 62 ft 136 kts 199°
2026-05-06 21:03 42.36556 -71.00483 27 ft 103 kts 200°
2026-05-06 21:03 42.36071 -71.00717 27 ft 37 kts 199°
2026-05-06 21:03 42.35958 -71.00854 28 ft 20 kts 226°
2026-05-06 21:04 42.35890 -71.00959 26 ft 0 kts 230°
2026-05-06 21:04 42.35889 -71.00961 28 ft 2 kts 230°
2026-05-06 21:04 42.35847 -71.01029 29 ft 13 kts 231°
2026-05-06 21:05 42.35834 -71.01135 29 ft 11 kts 277°
2026-05-06 21:05 42.35844 -71.01225 26 ft 9 kts 278°
2026-05-06 21:05 42.35852 -71.01300 27 ft 7 kts 278°
2026-05-06 21:05 42.35861 -71.01394 28 ft 14 kts 278°
2026-05-06 21:06 42.35878 -71.01521 29 ft 13 kts 281°
2026-05-06 21:06 42.35894 -71.01631 29 ft 11 kts 278°
2026-05-06 21:06 42.35906 -71.01726 28 ft 9 kts 281°
2026-05-06 21:06 42.35922 -71.01822 29 ft 13 kts 287°
2026-05-06 21:07 42.35962 -71.01918 27 ft 10 kts 301°
2026-05-06 21:07 42.35996 -71.01993 28 ft 8 kts 301°
2026-05-06 21:07 42.36024 -71.02055 27 ft 10 kts 300°
2026-05-06 21:07 42.36084 -71.02194 28 ft 19 kts 300°
2026-05-06 21:08 42.36170 -71.02282 26 ft 14 kts
2026-05-06 21:08 42.36256 -71.02243 25 ft 12 kts 11°
2026-05-06 21:08 42.36322 -71.02267 30 ft 9 kts 344°
2026-05-06 21:08 42.36356 -71.02239 30 ft 5 kts 53°
2026-05-06 21:09 42.36371 -71.02209 30 ft 2 kts 56°
2026-05-06 21:09 42.36377 -71.02197 26 ft 0 kts 57°
2026-05-06 21:09 42.36378 -71.02195 26 ft 1 kts 57°